Regional Weather Roundup
Issued by NWS Spokane, WA

Home | Current Version | Previous Version | Text Only | Print | Product List | Glossary On
Versions: 1 2 3 4 5 6 7 8 9 10 11 12 13 14 15 16 17 18 19 20 21 22 23 24 25 26 27 28 29 30 31 32 33 34 35 36 37 38 39 40 41 42 43 44 45 46 47 48 49 50
000
NZUS01 KOTX 290110
RWROTX
EASTERN WASHINGTON/NORTHERN IDAHO ROUNDUP
NATIONAL WEATHER SERVICE, SPOKANE WA
600 PM PDT MON JUL 28 2014

Note: "fair" indicated few or no clouds below 12,000 feet with no
significant weather and/or obstructions to visibility.

...NORTHEAST WASHINGTON AND NORTHERN IDAHO PANHANDLE...

CITY           SKY/WX    TMP DP  RH WIND       PRES   REMARKS
SPOKANE INTL   MOSUNNY   97  36  12 W7        30.03F HX  92
SPOKANE DOWNTO SUNNY     99  35  10 CALM      30.01F HX  93
COEUR D ALENE  SUNNY     95  43  16 E3        30.02S HX  91
DEER PARK        N/A     96  42  15 S6        30.03F HX  92
SANDPOINT      SUNNY     91  45  19 CALM      30.04S

...SOUTHEAST WASHINGTON AND SOUTHERN IDAHO PANHANDLE...

CITY           SKY/WX    TMP DP  RH WIND       PRES   REMARKS
WALLA WALLA    SUNNY    100  46  16 S10       29.95F HX  96
PULLMAN/MOSCOW SUNNY     96  38  13 CALM      30.06S HX  91
LEWISTON       SUNNY    103  38  10 N9        29.94F HX  97
LOWELL           N/A     85  62  46 CALM      29.94R

...COLUMBIA BASIN...

CITY           SKY/WX    TMP DP  RH WIND       PRES   REMARKS
EPHRATA        SUNNY    100  35  10 S12       29.95F HX  94
MOSES LAKE     SUNNY    101  37  11 W6        29.95F HX  95
TRI CITIES     SUNNY    102  53  19 N5        29.89F HX 100
HERMISTON      SUNNY    102  46  15 W9        29.90F HX  98
PENDLETON      SUNNY    100  39  12 W10       29.96F HX  95

...EAST SLOPES CASCADES...

CITY           SKY/WX    TMP DP  RH WIND       PRES   REMARKS
THE DALLES     SUNNY     96  59  29 NW13      29.90S HX  95
YAKIMA         SUNNY    101  42  13 SE6       29.93F HX  96
WENATCHEE      MOSUNNY  102  35  10 VRB3      29.94F HX  96
OMAK           MOSUNNY  101  31   8 S9        29.94F HX  94

...SOUTHERN BRITISH COLUMBIA...

CITY           SKY/WX    TMP DP  RH WIND       PRES   REMARKS
PENTICTON      MOSUNNY   82  59  44 N6        29.95F
CASTLEGAR      MOSUNNY   97  46  17 VRB2      29.98F HX  93
CRANBROOK      MOSUNNY   91  37  15 S6        30.10

...WESTERN MONTANA...

CITY           SKY/WX    TMP DP  RH WIND       PRES   REMARKS
MISSOULA       MOSUNNY   90  38  16 N17G23    30.08F

...NEIGHBORING CITIES...

CITY           SKY/WX    TMP DP  RH WIND       PRES   REMARKS
SEATTLE        MOSUNNY   85  51  30 NW9       30.08F
CALGARY        MOSUNNY   82  50  32 SE9       30.17F



USA.gov is the U.S. government's official web portal to all federal, state and local government web resources and services.